Location: Bun Machan
(52.1403°N, 7.3744°W)
Time: 23:10:13
(UTC+00:00)

SeaSat 1 - Visible Passes

Search period start: 24 October 2020 00:00
Search period end: 03 November 2020 00:00
Orbit: 744 x 748 km, 108.0° (Epoch: 24 October)

Date Brightness Start Highest point End Pass type
(mag) Time Alt. Az. Time Alt. Az. Time Alt. Az.
24 Oct 3.1 18:15:15 10° ESE 18:19:44 36° NE 18:24:14 10° NNW visible
24 Oct 3.2 19:54:42 27° S 19:57:08 50° WSW 20:01:59 10° NW visible
25 Oct 2.3 19:11:59 25° SE 19:14:53 76° ENE 19:19:51 10° NNW visible
25 Oct 4.5 20:51:47 20° SW 20:52:53 21° WSW 20:56:38 10° WNW visible
26 Oct 3.0 18:29:14 15° ESE 18:32:53 38° NE 18:37:26 10° NNW visible
26 Oct 3.3 20:09:02 38° SSW 20:10:20 47° WSW 20:15:07 10° NW visible
27 Oct 3.8 17:47:22 10° E 17:51:07 22° NE 17:54:51 10° NNW visible
27 Oct 2.3 19:26:16 41° SE 19:28:03 81° ENE 19:33:01 10° NNW visible
27 Oct 4.6 21:06:03 20° WSW 21:06:06 20° WSW 21:09:41 10° WNW visible
28 Oct 2.9 18:43:27 23° ESE 18:46:01 41° NE 18:50:39 10° NNW visible
28 Oct 3.3 20:23:15 43° WSW 20:23:32 43° WSW 20:28:16 10° NW visible
29 Oct 3.7 18:00:38 11° E 18:04:14 23° NE 18:08:04 10° NNW visible
29 Oct 2.3 19:40:26 64° SE 19:41:13 87° NE 19:46:12 10° NNW visible
29 Oct 4.9 21:20:14 17° W 21:20:14 17° W 21:22:43 10° WNW visible
30 Oct 2.8 18:57:35 33° E 18:59:10 43° NE 19:03:50 10° NNW visible
30 Oct 3.7 20:37:23 38° W 20:37:23 38° W 20:41:24 10° NW visible
31 Oct 3.6 18:14:43 16° E 18:17:21 24° NE 18:21:17 10° NNW visible
31 Oct 2.4 19:54:31 85° WNW 19:54:31 85° WNW 19:59:23 10° NNW visible
31 Oct 5.1 21:34:19 14° WNW 21:34:19 14° WNW 21:35:44 10° WNW visible
01 Nov 4.2 17:32:59 10° ENE 17:35:46 15° NNE 17:38:32 10° N visible
01 Nov 2.7 19:11:38 43° ENE 19:12:19 46° NE 19:17:02 10° NNW visible
01 Nov 4.1 20:51:27 30° WNW 20:51:27 30° WNW 20:54:32 10° NW visible
02 Nov 3.6 18:28:45 21° ENE 18:30:29 25° NE 18:34:30 10° NNW visible
02 Nov 2.9 20:08:32 59° NW 20:08:32 59° NW 20:12:33 10° NNW visible
02 Nov 5.4 21:48:20 11° WNW 21:48:20 11° WNW 21:48:44 10° WNW visible
